Time,TemperatureF,DewpointF,PressureIn,WindDirection,WindDirectionDegrees,WindSpeedMPH,WindSpeedGustMPH,Humidity,HourlyPrecipIn,Conditions,Clouds,dailyrainin,SoftwareType,DateUTC
2013-09-14 00:14:00,58.0,54.0,29.77,WNW,289,0.0,0.0,87,0.00,,,0.38,,2013-09-14 04:14:00,
2013-09-14 00:24:00,58.0,54.0,29.77,NNW,334,0.0,4.0,87,0.00,,,0.06,,2013-09-14 04:24:00,
2013-09-14 00:54:00,57.0,53.0,29.77,North,355,0.0,0.0,86,0.00,,,0.06,,2013-09-14 04:54:00,
2013-09-14 01:13:00,57.0,53.0,29.78,NNW,347,0.0,4.0,86,0.00,,,0.06,,2013-09-14 05:13:00,
2013-09-14 01:22:00,57.0,53.0,29.78,NNW,334,0.0,4.0,86,0.00,,,0.06,,2013-09-14 05:22:00,
2013-09-14 01:53:00,57.0,53.0,29.79,NNW,334,0.0,1.0,86,0.00,,,0.06,,2013-09-14 05:53:00,
2013-09-14 02:12:00,57.0,53.0,29.78,NNW,334,0.0,0.0,86,0.00,,,0.06,,2013-09-14 06:12:00,
2013-09-14 02:22:00,56.0,52.0,29.78,NNW,334,0.0,0.0,86,0.00,,,0.06,,2013-09-14 06:22:00,
2013-09-14 02:52:00,56.0,52.0,29.80,NNW,334,0.0,0.0,86,0.00,,,0.06,,2013-09-14 06:52:00,
2013-09-14 03:12:00,56.0,52.0,29.80,NNW,334,0.0,1.0,87,0.00,,,0.06,,2013-09-14 07:12:00,
2013-09-14 03:22:00,56.0,52.0,29.80,NNW,334,0.0,1.0,87,0.00,,,0.06,,2013-09-14 07:22:00,
2013-09-14 03:52:00,55.0,51.0,29.80,NNW,335,0.0,0.0,86,0.00,,,0.06,,2013-09-14 07:52:00,
2013-09-14 04:12:00,55.0,51.0,29.80,NNW,334,0.0,1.0,87,0.00,,,0.06,,2013-09-14 08:12:00,
2013-09-14 04:22:00,55.0,51.0,29.80,NNW,334,0.0,2.0,87,0.00,,,0.06,,2013-09-14 08:22:00,
2013-09-14 04:52:00,53.0,50.0,29.80,NNW,335,0.0,0.0,88,0.00,,,0.06,,2013-09-14 08:52:00,
2013-09-14 05:12:00,53.0,50.0,29.81,NNW,335,0.0,0.0,89,0.00,,,0.06,,2013-09-14 09:12:00,
2013-09-14 05:22:00,53.0,50.0,29.81,NNW,335,0.0,3.0,90,0.00,,,0.06,,2013-09-14 09:22:00,
2013-09-14 05:54:00,52.0,49.0,29.83,NNW,335,0.0,0.0,91,0.00,,,0.06,,2013-09-14 09:54:00,
2013-09-14 06:23:00,51.0,49.0,29.83,NNW,335,0.0,0.0,92,0.00,,,0.05,,2013-09-14 10:23:00,
2013-09-14 06:53:00,51.0,49.0,29.84,NNW,335,0.0,0.0,92,0.00,,,0.05,,2013-09-14 10:53:00,
2013-09-14 07:12:00,50.0,48.0,29.85,NNW,335,0.0,0.0,92,0.00,,,0.05,,2013-09-14 11:12:00,
2013-09-14 07:22:00,50.0,48.0,29.85,NNW,335,0.0,0.0,92,0.00,,,0.05,,2013-09-14 11:22:00,
2013-09-14 07:52:00,51.0,49.0,29.86,NNW,328,0.0,4.0,93,0.00,,,0.05,,2013-09-14 11:52:00,
2013-09-14 08:12:00,52.0,50.0,29.86,NW,323,0.0,5.0,93,0.00,,,0.05,,2013-09-14 12:12:00,
2013-09-14 08:22:00,52.0,50.0,29.88,NW,324,0.0,3.0,93,0.00,,,0.00,,2013-09-14 12:22:00,
2013-09-14 08:52:00,54.0,52.0,29.88,West,269,0.0,4.0,93,0.00,,,0.00,,2013-09-14 12:52:00,
2013-09-14 09:12:00,56.0,53.0,29.88,WNW,293,0.0,5.0,91,0.00,,,0.00,,2013-09-14 13:12:00,
2013-09-14 09:21:00,59.0,54.0,29.89,SW,222,0.0,5.0,83,0.00,,,0.00,,2013-09-14 13:21:00,
2013-09-14 09:42:00,62.0,54.0,29.89,NW,318,0.0,6.0,75,0.00,,,0.00,,2013-09-14 13:42:00,
2013-09-14 09:52:00,62.0,52.0,29.89,NNW,344,1.0,7.0,71,0.00,,,0.00,,2013-09-14 13:52:00,
2013-09-14 10:12:00,62.0,52.0,29.90,NNW,338,0.0,5.0,71,0.00,,,0.00,,2013-09-14 14:12:00,
2013-09-14 10:22:00,61.0,51.0,29.91,NW,306,2.0,8.0,70,0.00,,,0.00,,2013-09-14 14:22:00,
2013-09-14 10:52:00,61.0,51.0,29.91,NW,307,0.0,7.0,69,0.00,,,0.00,,2013-09-14 14:52:00,
2013-09-14 11:22:00,64.0,54.0,29.91,NNW,341,1.0,7.0,70,0.00,,,0.00,,2013-09-14 15:22:00,
2013-09-14 11:53:00,66.0,54.0,29.91,NNW,327,2.0,8.0,65,0.00,,,0.00,,2013-09-14 15:53:00,
2013-09-14 12:14:00,65.0,53.0,29.92,NNW,336,1.0,8.0,66,0.00,,,0.00,,2013-09-14 16:14:00,
2013-09-14 12:23:00,65.0,54.0,29.92,West,281,3.0,7.0,67,0.00,,,0.00,,2013-09-14 16:23:00,
2013-09-14 12:54:00,67.0,53.0,29.92,WSW,238,1.0,9.0,60,0.00,,,0.00,,2013-09-14 16:54:00,
2013-09-14 13:24:00,68.0,54.0,29.92,NNE,28,1.0,9.0,61,0.00,,,0.00,,2013-09-14 17:24:00,
2013-09-14 13:54:00,67.0,50.0,29.92,ENE,77,0.0,4.0,55,0.00,,,0.00,,2013-09-14 17:54:00,
2013-09-14 14:12:00,66.0,53.0,29.92,NNW,333,0.0,7.0,63,0.00,,,0.00,,2013-09-14 18:12:00,
2013-09-14 14:22:00,68.0,53.0,29.92,North,11,1.0,8.0,58,0.00,,,0.00,,2013-09-14 18:22:00,
2013-09-14 14:52:00,68.0,51.0,29.92,NW,313,3.0,8.0,55,0.00,,,0.00,,2013-09-14 18:52:00,
2013-09-14 15:11:00,69.0,53.0,29.92,NNW,348,0.0,9.0,56,0.00,,,0.00,,2013-09-14 19:11:00,
2013-09-14 15:22:00,68.0,52.0,29.92,North,360,3.0,11.0,56,0.00,,,0.00,,2013-09-14 19:22:00,
2013-09-14 15:52:00,69.0,55.0,29.93,NNW,329,0.0,8.0,61,0.00,,,0.00,,2013-09-14 19:52:00,
2013-09-14 16:22:00,70.0,53.0,29.93,WSW,248,3.0,10.0,55,0.00,,,0.00,,2013-09-14 20:22:00,
2013-09-14 16:52:00,70.0,54.0,29.94,North,5,0.0,6.0,57,0.00,,,0.00,,2013-09-14 20:52:00,
2013-09-14 17:11:00,68.0,51.0,29.94,South,180,2.0,7.0,54,0.00,,,0.00,,2013-09-14 21:11:00,
2013-09-14 17:22:00,68.0,52.0,29.95,North,5,1.0,5.0,57,0.00,,,0.00,,2013-09-14 21:22:00,
2013-09-14 17:44:00,69.0,52.0,29.96,WSW,250,0.0,4.0,54,0.00,,,0.00,,2013-09-14 21:44:00,
2013-09-14 17:54:00,68.0,51.0,29.96,NW,305,0.0,4.0,54,0.00,,,0.00,,2013-09-14 21:54:00,
2013-09-14 18:24:00,65.0,52.0,29.98,NE,36,0.0,0.0,62,0.00,,,0.00,,2013-09-14 22:24:00,
2013-09-14 18:42:00,64.0,53.0,29.98,NE,36,0.0,0.0,67,0.00,,,0.00,,2013-09-14 22:42:00,
2013-09-14 18:53:00,63.0,53.0,29.98,NE,36,0.0,0.0,69,0.00,,,0.00,,2013-09-14 22:53:00,
2013-09-14 19:11:00,62.0,53.0,29.99,NE,36,0.0,0.0,72,0.00,,,0.00,,2013-09-14 23:11:00,
2013-09-14 19:23:00,61.0,52.0,30.00,NE,36,0.0,0.0,73,0.00,,,0.00,,2013-09-14 23:23:00,
2013-09-14 19:53:00,60.0,52.0,30.01,NNE,16,0.0,1.0,75,0.00,,,0.00,,2013-09-14 23:53:00,
2013-09-14 20:12:00,59.0,51.0,30.01,NNW,331,0.0,3.0,76,0.00,,,0.00,,2013-09-15 00:12:00,
2013-09-14 20:22:00,59.0,51.0,30.02,NNW,338,0.0,2.0,76,0.00,,,0.00,,2013-09-15 00:22:00,
2013-09-14 20:42:00,57.0,50.0,30.02,NNW,328,0.0,4.0,78,0.00,,,0.00,,2013-09-15 00:42:00,
2013-09-14 20:53:00,56.0,50.0,30.03,NNW,330,0.0,3.0,80,0.00,,,0.00,,2013-09-15 00:53:00,
2013-09-14 21:11:00,56.0,50.0,30.03,NNW,330,0.0,0.0,81,0.00,,,0.00,,2013-09-15 01:11:00,
2013-09-14 21:22:00,55.0,50.0,30.03,NNW,330,0.0,1.0,82,0.00,,,0.00,,2013-09-15 01:22:00,
2013-09-14 21:42:00,54.0,49.0,30.03,NNW,330,0.0,0.0,83,0.00,,,0.00,,2013-09-15 01:42:00,
2013-09-14 21:52:00,54.0,49.0,30.04,NNW,329,0.0,0.0,84,0.00,,,0.00,,2013-09-15 01:52:00,
2013-09-14 22:12:00,53.0,49.0,30.04,NW,315,0.0,4.0,85,0.00,,,0.00,,2013-09-15 02:12:00,
2013-09-14 22:22:00,53.0,49.0,30.04,NW,315,0.0,0.0,86,0.00,,,0.00,,2013-09-15 02:22:00,
2013-09-14 22:42:00,53.0,49.0,30.05,NW,315,0.0,0.0,87,0.00,,,0.00,,2013-09-15 02:42:00,
2013-09-14 22:52:00,52.0,48.0,30.05,NW,315,0.0,0.0,87,0.00,,,0.00,,2013-09-15 02:52:00,
2013-09-14 23:11:00,52.0,49.0,30.05,NW,315,0.0,0.0,88,0.00,,,0.00,,2013-09-15 03:11:00,
2013-09-14 23:22:00,52.0,49.0,30.05,NW,315,0.0,0.0,89,0.00,,,0.00,,2013-09-15 03:22:00,
2013-09-14 23:55:00,51.0,48.0,30.06,NW,315,0.0,0.0,90,0.00,,,0.00,,2013-09-15 03:55:00,